Ash Shahaniyah, Qatar

7:53 PM AST on February 25, 2017 (GMT +0300)
Ash Shahaniyah

Weather History for WKQIR - June, 2013

Change the Weather History Date:

Saturday, June 15, 2013

  Actual Average Record
Temperature  
Mean Temperature 92 °F -  
Max Temperature 104 °F - - ()
Min Temperature 79 °F - - ()
Cooling Degree Days 26    
Growing Degree Days 42 (Base 50)    
Moisture  
Dew Point 59 °F    
Average Humidity 36    
Maximum Humidity 64    
Minimum Humidity 14    
Precipitation  
Precipitation 0.00 in - - ()
Sea Level Pressure  
Sea Level Pressure 29.46 in    
Wind  
Wind Speed 12 mph ()    
Max Wind Speed 24 mph    
Max Gust Speed 26 mph    
Visibility 5.3 miles    
Events      
T = Trace of Precipitation, MM = Missing Value Source: Averaged Metar Reports

Daily Weather History Graph

Daily Weather History Graph

Search for Another Location

Airport or City:

Trip Planner

Search our weather history database for the weather conditions in past years. The results will help you decide how hot, cold, wet, or windy it might be!

Date:

Astronomy

Jun. 15, 2013 Rise Set
Actual Time 4:44 AM AST 6:26 PM AST
Civil Twilight 4:18 AM AST 6:52 PM AST
Nautical Twilight 3:47 AM AST 7:23 PM AST
Astronomical Twilight 3:14 AM AST 7:56 PM AST
Moon 10:23 AM AST (6/15) 10:56 PM AST (6/15)
Length of Visible Light 14h 34m
Length of Day
13h 42m
Waxing Crescent, 36% of the Moon is Illuminated
Jun 15
Waxing Crescent
Jun 16
First Quarter
Jun 23
Full
Jun 30
Last Quarter
Jul 8
New

Hourly Weather History & Observations

Time (AST) Temp. Heat Index Dew Point Humidity Pressure Visibility Wind Dir Wind Speed Gust Speed Precip Events Conditions
12:55 AM 80.4 °F 82.2 °F 64.9 °F 59% 29.43 in 6.2 mi WNW 8.1 mph - N/A   Clear
1:55 AM 79.0 °F - 66.0 °F 64% 29.42 in 6.2 mi WNW 5.8 mph - N/A   Clear
2:55 AM 79.2 °F - 64.6 °F 61% 29.43 in 6.2 mi WNW 5.8 mph - N/A   Clear
3:55 AM 80.4 °F 81.1 °F 59.7 °F 49% 29.44 in 6.2 mi WNW 10.4 mph - N/A   Clear
4:55 AM 80.4 °F 81.0 °F 58.8 °F 48% 29.45 in 6.2 mi WNW 8.1 mph - N/A   Clear
5:55 AM 81.3 °F 81.6 °F 59.0 °F 46% 29.47 in 6.2 mi WNW 9.2 mph - N/A   Clear
6:55 AM 87.4 °F 86.5 °F 57.9 °F 37% 29.49 in 5.6 mi NNW 9.2 mph - N/A   Haze
7:45 AM 91.4 °F 92.1 °F 62.6 °F 38% 29.48 in - NNW 17.3 mph - N/A   Haze
7:46 AM 91.4 °F 92.1 °F 62.6 °F 38% 29.49 in - NNW 17.3 mph - N/A   Haze
7:55 AM 92.3 °F 93.1 °F 62.2 °F 37% 29.48 in - NNW 20.7 mph - N/A   Haze
8:55 AM 95.2 °F 96.3 °F 62.4 °F 34% 29.49 in - NNW 18.4 mph - N/A   Haze
9:28 AM 96.8 °F 97.1 °F 60.8 °F 30% 29.49 in - NNW 19.6 mph - N/A   Haze
9:55 AM 97.9 °F 99.3 °F 62.2 °F 31% 29.48 in - NNW 18.4 mph - N/A   Haze
10:55 AM 100.6 °F 101.6 °F 60.8 °F 27% 29.47 in - NNW 19.6 mph - N/A   Haze
11:55 AM 102.9 °F 103.0 °F 58.6 °F 23% 29.46 in 3.7 mi NNW 20.7 mph - N/A   Haze
12:55 PM 103.8 °F 103.8 °F 57.4 °F 22% 29.46 in 3.7 mi NNW 19.6 mph - N/A   Haze
1:55 PM 104.2 °F 103.7 °F 57.2 °F 21% 29.44 in 3.7 mi NNW 20.7 mph - N/A   Haze
2:55 PM 104.7 °F - 52.0 °F 17% 29.43 in 3.7 mi NNW 20.7 mph 26.5 mph N/A   Haze
3:55 PM 103.6 °F - 46.4 °F 14% 29.43 in 3.7 mi NNW 24.2 mph - N/A   Haze
4:55 PM 100.8 °F - 49.1 °F 17% 29.43 in 3.7 mi NNW 23.0 mph - N/A   Haze
5:55 PM 96.8 °F 94.7 °F 54.0 °F 24% 29.44 in 5.0 mi NNW 19.6 mph - N/A   Haze
6:55 PM 93.6 °F 91.2 °F 54.1 °F 26% 29.46 in 5.6 mi North 15.0 mph - N/A   Haze
7:55 PM 90.1 °F 88.3 °F 56.1 °F 31% 29.47 in 5.6 mi NNW 9.2 mph - N/A   Haze
8:55 PM 87.8 °F 86.3 °F 55.8 °F 34% 29.47 in 5.6 mi NW 8.1 mph - N/A   Haze
9:55 PM 85.8 °F 84.7 °F 56.5 °F 37% 29.47 in 6.2 mi WNW 6.9 mph - N/A   Clear
10:55 PM 84.4 °F 84.6 °F 60.6 °F 45% 29.46 in 6.2 mi NW 5.8 mph - N/A   Clear
11:55 PM 84.0 °F 85.2 °F 63.3 °F 50% 29.44 in 6.2 mi WNW 10.4 mph - N/A   Clear